This is the latest recevied weather packets stored in our database for station/object K6MBY. If no packets are shown the sender has not sent any weather packets the latest 10 day(s).
| Time | Temp. | Humidity | Pressure | Rain* | Wind** | Luminosity | Snow |
|---|---|---|---|---|---|---|---|
| 1788135888 | 61° F | 82% | 767.2 mmHg | 0 in | - | 76 W/m² | - |
| 1788135583 | 61° F | 82% | 767.1 mmHg | 0 in | - | 77 W/m² | - |
| 1788135278 | 61° F | 82% | 767.2 mmHg | 0 in | - | 105 W/m² | - |
| 1788134976 | 62° F | 81% | 767.2 mmHg | 0 in | - | 114 W/m² | - |
| 1788134671 | 62° F | 81% | 767.2 mmHg | 0 in | - | 134 W/m² | - |
| 1788134369 | 62° F | 80% | 767.3 mmHg | 0 in | - | 135 W/m² | - |
| 1788134065 | 62° F | 79% | 767.3 mmHg | 0 in | - | 133 W/m² | - |
| 1788133760 | 62° F | 79% | 767.2 mmHg | 0 in | - | 145 W/m² | - |
| 1788133455 | 63° F | 78% | 767.3 mmHg | 0 in | - | 161 W/m² | - |
| 1788133151 | 63° F | 77% | 767.4 mmHg | 0 in | - | 163 W/m² | - |
| 1788132846 | 63° F | 77% | 767.4 mmHg | 0 in | - | 186 W/m² | - |
| 1788132542 | 64° F | 75% | 767.3 mmHg | 0 in | - | 210 W/m² | - |
| 1788132237 | 64° F | 74% | 767.4 mmHg | 0 in | - | 224 W/m² | - |
| 1788131934 | 64° F | 75% | 767.4 mmHg | 0 in | - | 266 W/m² | - |
| 1788131629 | 64° F | 75% | 767.2 mmHg | 0 in | - | 277 W/m² | - |
| 1788131328 | 64° F | 74% | 767.5 mmHg | 0 in | - | 275 W/m² | - |
| 1788131024 | 64° F | 74% | 767.5 mmHg | 0 in | - | 338 W/m² | - |
| 1788130723 | 64° F | 74% | 767.5 mmHg | 0 in | - | 353 W/m² | - |
| 1788130418 | 64° F | 74% | 767.5 mmHg | 0 in | - | 296 W/m² | - |
| 1788130113 | 64° F | 74% | 767.5 mmHg | 0 in | - | 328 W/m² | - |
| 1788129807 | 64° F | 74% | 767.5 mmHg | 0 in | - | 373 W/m² | - |
| 1788129503 | 64° F | 74% | 767.5 mmHg | 0 in | - | 341 W/m² | - |
| 1788129200 | 64° F | 74% | 767.5 mmHg | 0 in | - | 308 W/m² | - |
| 1788128894 | 63° F | 74% | 767.5 mmHg | 0 in | - | 256 W/m² | - |
| 1788128589 | 64° F | 74% | 767.5 mmHg | 0 in | - | 251 W/m² | - |
* Rain latest hour (hover to see other rain measurements)
** Current wind speed in m/s (hover to see current wind gust speed)